Location: Newark
(45.8667°N, 9.7333°E)
Time: 23:38:34
(UTC+00:00)

Vanguard 3 - Pass Details

Date: 30 January 2020
Orbit: 508 x 3263 km, 33.3° (Epoch: 23 February)

Event Time Altitude Azimuth Distance (km) Brightness Sun altitude
Rises 20:44:05 0° 276° (W) 7,228 12.7 -44.9°
Reaches altitude 10° 20:49:51 10° 269° (W) 6,106 12.1 -45.8°
Maximum altitude 21:04:54 33° 216° (SW) 3,785 10.4 -48.1°
Enters shadow 21:05:53 32° 210° (SSW) 3,728 10.3 -48.3°
Drops below altitude 10° 21:15:43 10° 159° (SSE) 4,347 - -49.7°
Sets 21:19:02 0° 149° (SSE) 4,976 - -50.2°
